• In Italy
  • List of Countries
  • For 7 days
  • Water Temperature
  • Satellite Maps
  • Weather Map
  • Weather Widgets
  • user-avatar
    Login

    Hourly Weather Novoukrainka

    Today, 23 April, Monday

    Time Temperature Precipitation Wind Pressure Humidity
    00:00 +12°C° 0 mm 3 mps 746 mmHg 58%
    01:00 +12°C° 0 mm 2 mps 746 mmHg 60%
    02:00 +12°C° 0 mm 2 mps 746 mmHg 62%
    03:00 +10°C° 0 mm 2 mps 746 mmHg 62%
    04:00 +10°C° 0 mm 2 mps 746 mmHg 62%
    05:00 +10°C° 0 mm 2 mps 746 mmHg 63%
    06:00 +12°C° 0 mm 2 mps 747 mmHg 59%
    07:00 +13°C° 0 mm 2 mps 747 mmHg 55%
    08:00 +15°C° 0 mm 2 mps 747 mmHg 50%
    09:00 +16°C° 0 mm 3 mps 747 mmHg 46%
    10:00 +17°C° 0 mm 3 mps 747 mmHg 41%
    11:00 +18°C° 0 mm 3 mps 747 mmHg 37%
    12:00 +18°C° 0 mm 3 mps 747 mmHg 38%
    13:00 +18°C° 0 mm 3 mps 747 mmHg 39%
    14:00 +17°C° 0 mm 3 mps 748 mmHg 39%
    15:00 +17°C° 0 mm 2 mps 748 mmHg 40%
    16:00 +17°C° 0 mm 2 mps 748 mmHg 41%
    17:00 +17°C° 0 mm 2 mps 748 mmHg 42%
    18:00 +16°C° 0 mm 2 mps 748 mmHg 46%
    19:00 +15°C° 0 mm 2 mps 748 mmHg 49%
    20:00 +13°C° 0 mm 2 mps 748 mmHg 53%
    21:00 +12°C° 0 mm 2 mps 748 mmHg 55%
    22:00 +11°C° 0 mm 3 mps 749 mmHg 57%
    23:00 +10°C° 0 mm 3 mps 749 mmHg 59%

    Tomorrow, 24 April, Tuesday

    Time Temperature Precipitation Wind Pressure Humidity
    00:00 +10°C° 0 mm 3 mps 749 mmHg 60%
    01:00 +9°C° 0 mm 3 mps 749 mmHg 61%
    02:00 +9°C° 0 mm 3 mps 749 mmHg 62%
    03:00 +9°C° 0 mm 3 mps 749 mmHg 63%
    04:00 +9°C° 0 mm 3 mps 748 mmHg 63%
    05:00 +7°C° 0 mm 4 mps 748 mmHg 64%
    06:00 +10°C° 0 mm 4 mps 748 mmHg 61%
    07:00 +12°C° 0 mm 5 mps 748 mmHg 58%
    08:00 +14°C° 0 mm 5 mps 748 mmHg 54%
    09:00 +16°C° 0 mm 6 mps 748 mmHg 52%
    10:00 +17°C° 0 mm 6 mps 747 mmHg 50%
    11:00 +20°C° 0 mm 6 mps 747 mmHg 48%
    12:00 +20°C° 0.3 mm 6 mps 747 mmHg 52%
    13:00 +20°C° 0.3 mm 6 mps 746 mmHg 56%
    14:00 +20°C° 0.3 mm 5 mps 746 mmHg 60%
    15:00 +19°C° 0.6 mm 5 mps 746 mmHg 66%
    16:00 +18°C° 0.6 mm 4 mps 745 mmHg 73%
    17:00 +17°C° 0.6 mm 4 mps 745 mmHg 79%
    18:00 +17°C° 0.1 mm 4 mps 745 mmHg 83%
    19:00 +16°C° 0.1 mm 3 mps 746 mmHg 87%
    20:00 +14°C° 0.1 mm 3 mps 746 mmHg 91%
    21:00 +14°C° 0 mm 3 mps 746 mmHg 91%
    22:00 +13°C° 0 mm 3 mps 746 mmHg 91%
    23:00 +13°C° 0 mm 3 mps 746 mmHg 91%

    Day after tomorrow, 25 April, Wednesday

    Time Temperature Precipitation Wind Pressure Humidity
    00:00 +12°C° 0 mm 3 mps 747 mmHg 91%
    01:00 +12°C° 0 mm 3 mps 747 mmHg 90%
    02:00 +11°C° 0 mm 3 mps 747 mmHg 89%
    03:00 +11°C° 0 mm 3 mps 747 mmHg 87%
    04:00 +10°C° 0 mm 3 mps 747 mmHg 85%
    05:00 +10°C° 0 mm 2 mps 748 mmHg 83%
    06:00 +11°C° 0 mm 3 mps 748 mmHg 75%
    07:00 +13°C° 0 mm 3 mps 748 mmHg 66%
    08:00 +16°C° 0 mm 3 mps 748 mmHg 58%
    09:00 +17°C° 0 mm 3 mps 749 mmHg 54%
    10:00 +19°C° 0 mm 3 mps 749 mmHg 51%
    11:00 +20°C° 0 mm 4 mps 749 mmHg 47%
    12:00 +21°C° 0 mm 4 mps 749 mmHg 45%
    13:00 +22°C° 0 mm 4 mps 748 mmHg 43%
    14:00 +23°C° 0 mm 4 mps 748 mmHg 42%
    15:00 +23°C° 0 mm 4 mps 748 mmHg 43%
    16:00 +23°C° 0 mm 4 mps 747 mmHg 44%
    17:00 +23°C° 0 mm 4 mps 747 mmHg 45%
    18:00 +21°C° 0 mm 3 mps 747 mmHg 50%
    19:00 +20°C° 0 mm 3 mps 747 mmHg 54%
    20:00 +18°C° 0 mm 2 mps 747 mmHg 59%
    21:00 +17°C° 0 mm 3 mps 747 mmHg 61%
    22:00 +17°C° 0 mm 3 mps 747 mmHg 63%
    23:00 +15°C° 0 mm 4 mps 747 mmHg 64%

    26 April, Thursday

    Time Temperature Precipitation Wind Pressure Humidity
    00:00 +15°C° 0 mm 4 mps 747 mmHg 67%
    01:00 +14°C° 0 mm 4 mps 747 mmHg 70%
    02:00 +14°C° 0 mm 4 mps 747 mmHg 73%
    03:00 +14°C° 0 mm 4 mps 746 mmHg 73%
    04:00 +13°C° 0 mm 4 mps 746 mmHg 74%
    05:00 +13°C° 0 mm 4 mps 746 mmHg 74%
    06:00 +15°C° 0 mm 4 mps 746 mmHg 71%
    07:00 +16°C° 0 mm 5 mps 746 mmHg 69%
    08:00 +19°C° 0 mm 5 mps 747 mmHg 66%
    09:00 +21°C° 0 mm 5 mps 747 mmHg 61%
    10:00 +23°C° 0 mm 5 mps 747 mmHg 56%
    11:00 +26°C° 0 mm 5 mps 747 mmHg 51%
    12:00 +27°C° 0 mm 5 mps 746 mmHg 47%
    13:00 +27°C° 0 mm 4 mps 746 mmHg 44%
    14:00 +28°C° 0 mm 4 mps 746 mmHg 40%
    15:00 +28°C° 0 mm 4 mps 746 mmHg 41%
    16:00 +28°C° 0 mm 3 mps 746 mmHg 41%
    17:00 +27°C° 0 mm 2 mps 746 mmHg 41%
    18:00 +25°C° 0 mm 2 mps 746 mmHg 47%
    19:00 +23°C° 0 mm 2 mps 746 mmHg 52%
    20:00 +21°C° 0 mm 1 mps 746 mmHg 58%
    21:00 +19°C° 0 mm 2 mps 746 mmHg 62%
    22:00 +18°C° 0 mm 3 mps 746 mmHg 65%
    23:00 +17°C° 0 mm 3 mps 746 mmHg 69%

    27 April, Friday

    Time Temperature Precipitation Wind Pressure Humidity
    00:00 +17°C° 0 mm 3 mps 746 mmHg 69%
    01:00 +16°C° 0 mm 3 mps 745 mmHg 69%
    02:00 +14°C° 0 mm 3 mps 745 mmHg 70%
    03:00 +14°C° 0 mm 3 mps 745 mmHg 71%
    04:00 +14°C° 0 mm 4 mps 745 mmHg 71%
    05:00 +13°C° 0 mm 4 mps 744 mmHg 72%
    06:00 +15°C° 0 mm 5 mps 744 mmHg 69%
    07:00 +16°C° 0 mm 5 mps 744 mmHg 65%
    08:00 +19°C° 0 mm 6 mps 744 mmHg 61%
    09:00 +20°C° 0.1 mm 6 mps 744 mmHg 58%
    10:00 +22°C° 0.1 mm 7 mps 745 mmHg 54%
    11:00 +24°C° 0.1 mm 8 mps 745 mmHg 51%
    12:00 +24°C° 0.3 mm 7 mps 745 mmHg 53%
    13:00 +24°C° 0.3 mm 6 mps 745 mmHg 55%
    14:00 +24°C° 0.3 mm 6 mps 745 mmHg 57%
    15:00 +22°C° 1.2 mm 6 mps 745 mmHg 61%
    16:00 +21°C° 1.2 mm 6 mps 746 mmHg 66%
    17:00 +19°C° 1.2 mm 6 mps 746 mmHg 70%
    18:00 +17°C° 0.1 mm 5 mps 747 mmHg 73%
    19:00 +15°C° 0.1 mm 4 mps 748 mmHg 75%
    20:00 +14°C° 0.1 mm 4 mps 748 mmHg 78%
    21:00 +13°C° 0 mm 3 mps 749 mmHg 79%
    22:00 +12°C° 0 mm 3 mps 749 mmHg 81%
    23:00 +11°C° 0 mm 3 mps 749 mmHg 83%

    28 April, Saturday

    Time Temperature Precipitation Wind Pressure Humidity
    00:00 +12°C° 0 mm 2 mps 750 mmHg 83%
    01:00 +10°C° 0 mm 2 mps 750 mmHg 84%
    02:00 +10°C° 0 mm 2 mps 750 mmHg 85%
    03:00 +10°C° 0 mm 2 mps 751 mmHg 85%
    04:00 +9°C° 0 mm 2 mps 751 mmHg 85%
    05:00 +9°C° 0 mm 2 mps 752 mmHg 85%
    06:00 +11°C° 0 mm 3 mps 752 mmHg 77%
    07:00 +13°C° 0 mm 3 mps 752 mmHg 69%
    08:00 +14°C° 0 mm 4 mps 753 mmHg 60%
    09:00 +17°C° 0 mm 4 mps 753 mmHg 54%
    10:00 +18°C° 0 mm 4 mps 753 mmHg 48%
    11:00 +19°C° 0 mm 4 mps 753 mmHg 42%
    12:00 +20°C° 0 mm 4 mps 753 mmHg 40%
    13:00 +20°C° 0 mm 4 mps 752 mmHg 38%
    14:00 +21°C° 0 mm 4 mps 752 mmHg 36%
    15:00 +21°C° 0 mm 4 mps 752 mmHg 37%
    16:00 +21°C° 0 mm 4 mps 752 mmHg 38%
    17:00 +21°C° 0 mm 4 mps 751 mmHg 40%
    18:00 +19°C° 0 mm 3 mps 752 mmHg 45%
    19:00 +17°C° 0 mm 3 mps 752 mmHg 50%
    20:00 +14°C° 0 mm 3 mps 752 mmHg 55%
    21:00 +14°C° 0 mm 3 mps 752 mmHg 57%
    22:00 +13°C° 0 mm 3 mps 752 mmHg 58%
    23:00 +12°C° 0 mm 3 mps 752 mmHg 60%
    Show more